CW2969 Weather Reports


Display with metric or nautical units.
time (UTC)temp
F
wind
direction
speed
MPH
gust
MPH
rain 1hr
in
rain 24hr
in
rain mn
in
humidity
%
barometer
mb
20260503041016 56 101 0.0 0.0 0.00 0.00 0.00 74 1020.4
20260503040516 57 101 0.0 0.0 0.00 0.00 0.00 74 1020.5
20260503040015 57 101 0.0 0.0 0.00 0.00 0.00 74 1020.5
20260503035515 57 101 0.0 0.0 0.00 0.00 0.00 73 1020.4
20260503034515 57 101 0.0 0.0 0.00 0.00 0.00 72 1020.3
20260503034015 58 101 0.0 0.0 0.00 0.00 0.00 72 1020.4
20260503033515 58 101 0.0 0.0 0.00 0.00 0.00 72 1020.3
20260503032515 58 101 0.0 0.0 0.00 0.00 0.00 71 1020.2
20260503032015 59 101 0.0 0.0 0.00 0.00 0.00 71 1020.2
20260503031515 59 101 0.0 0.0 0.00 0.00 0.00 70 1020.1
20260503031015 59 101 0.0 0.0 0.00 0.00 0.00 69 1020.0
20260503030514 59 101 0.0 0.0 0.00 0.00 0.00 69 1020.0
20260503030015 60 101 0.0 0.0 0.00 0.00 0.00 69 1020.0
20260503025515 60 101 0.0 0.0 0.00 0.00 0.00 68 1019.8
20260503025014 60 101 0.0 0.0 0.00 0.00 0.00 68 1019.8
20260503024514 60 101 0.0 0.0 0.00 0.00 0.00 67 1019.8
20260503024014 61 101 0.0 0.0 0.00 0.00 0.00 67 1019.7
20260503023514 61 101 0.0 0.0 0.00 0.00 0.00 66 1019.5
20260503023014 61 101 0.0 0.0 0.00 0.00 0.00 66 1019.4
20260503022514 62 101 0.0 0.0 0.00 0.00 0.00 66 1019.3
20260503022014 62 101 0.0 0.0 0.00 0.00 0.00 65 1019.2
20260503021514 62 101 0.0 0.0 0.00 0.00 0.00 64 1019.3
20260503021014 63 101 0.0 0.0 0.00 0.00 0.00 64 1019.2
20260503020514 63 101 0.0 0.0 0.00 0.00 0.00 63 1019.2
20260503020014 64 101 0.0 0.0 0.00 0.00 0.00 62 1019.3
20260503015514 64 101 0.0 0.0 0.00 0.00 0.00 61 1019.1
20260503015014 65 101 0.0 0.0 0.00 0.00 0.00 60 1019.1
20260503014514 66 101 0.0 0.0 0.00 0.00 0.00 59 1019.2
20260503014014 66 101 0.0 0.0 0.00 0.00 0.00 58 1019.1
20260503013514 67 101 0.0 0.0 0.00 0.00 0.00 57 1019.3
20260503013014 67 101 0.0 0.0 0.00 0.00 0.00 56 1019.3
20260503012514 68 101 0.0 0.0 0.00 0.00 0.00 55 1019.2
20260503011514 69 101 0.0 0.0 0.00 0.00 0.00 54 1019.0
20260503011014 70 101 0.0 0.0 0.00 0.00 0.00 53 1019.0
20260503010514 71 101 0.0 0.0 0.00 0.00 0.00 51 1019.0
20260503010014 72 101 0.0 0.0 0.00 0.00 0.00 50 1019.1
20260503005513 73 101 0.0 1.0 0.00 0.00 0.00 48 1019.0
20260503005013 73 101 0.0 1.0 0.00 0.00 0.00 47 1018.9
20260503004513 74 101 0.0 1.0 0.00 0.00 0.00 46 1018.9
20260503004014 74 103 0.0 1.0 0.00 0.00 0.00 45 1018.9
20260503003513 74 74 0.0 2.0 0.00 0.00 0.00 45 1018.8
20260503003013 75 98 1.0 2.0 0.00 0.00 0.00 44 1018.9
20260503002513 75 39 1.0 1.0 0.00 0.00 0.00 45 1018.9
20260503002013 75 107 0.0 1.0 0.00 0.00 0.00 44 1018.9
20260503000513 75 205 2.0 3.0 0.00 0.01 0.00 43 1018.7
20260502235513 76 88 0.0 2.0 0.00 0.01 0.00 43 1018.7
20260502234013 76 336 0.0 3.0 0.00 0.01 0.00 43 1018.6
20260502233513 76 100 1.0 4.0 0.00 0.01 0.00 43 1018.6
20260502233013 76 78 0.0 4.0 0.00 0.01 0.00 43 1018.6
20260502232513 76 37 1.0 2.0 0.00 0.01 0.00 44 1018.5
20260502232013 76 82 0.0 2.0 0.00 0.01 0.00 43 1018.5
20260502231513 76 66 0.0 7.0 0.00 0.01 0.00 44 1018.6
20260502231013 76 355 4.0 7.0 0.00 0.01 0.00 44 1018.6
20260502230012 77 134 0.0 4.0 0.00 0.01 0.00 45 1018.5
20260502225512 76 336 2.0 4.0 0.00 0.01 0.00 45 1018.6
20260502225012 76 360 2.0 3.0 0.00 0.01 0.00 45 1018.6
20260502224512 76 67 1.0 4.0 0.00 0.01 0.00 44 1018.7
20260502223512 76 119 0.0 2.0 0.00 0.01 0.00 45 1018.7
20260502223013 76 126 2.0 7.0 0.00 0.01 0.00 45 1018.7
20260502222512 76 348 2.0 7.0 0.00 0.02 0.00 46 1018.7
20260502222012 77 93 2.0 4.0 0.00 0.02 0.00 45 1018.8
20260502221512 77 153 1.0 4.0 0.00 0.03 0.00 45 1018.9
20260502220512 77 43 1.0 6.0 0.00 0.06 0.00 45 1018.9
20260502213012 77 70 2.0 6.0 0.00 0.11 0.00 46 1019.2
20260502212512 76 107 2.0 7.0 0.00 0.13 0.00 47 1019.3
20260502212012 76 138 1.0 7.0 0.00 0.14 0.00 46 1019.3
20260502211511 77 91 3.0 4.0 0.00 0.14 0.00 47 1019.4
20260502211012 76 30 2.0 4.0 0.00 0.15 0.00 46 1019.4
20260502210512 76 311 0.0 1.0 0.00 0.15 0.00 46 1019.5
20260502210011 76 298 1.0 1.0 0.00 0.16 0.00 46 1019.6
20260502205511 76 119 0.0 0.0 0.00 0.17 0.00 47 1019.6
20260502205011 76 306 0.0 3.0 0.00 0.18 0.00 47 1019.7
20260502204011 76 22 2.0 5.0 0.00 0.19 0.00 50 1019.8
20260502203511 76 328 3.0 4.0 0.00 0.19 0.00 50 1019.8
20260502203011 76 334 0.0 3.0 0.00 0.19 0.00 51 1019.9
20260502202511 76 107 0.0 1.0 0.00 0.19 0.00 50 1020.0
20260502202010 75 188 0.0 1.0 0.00 0.19 0.00 52 1019.9
20260502201511 75 344 0.0 2.0 0.00 0.20 0.00 50 1020.0
20260502201011 75 85 0.0 2.0 0.00 0.20 0.00 51 1020.2
20260502200511 75 148 1.0 2.0 0.00 0.21 0.00 51 1020.1
20260502200011 75 98 2.0 6.0 0.00 0.22 0.00 51 1020.2
20260502195510 75 114 6.0 6.0 0.00 0.22 0.00 52 1020.1
20260502194510 74 108 0.0 5.0 0.00 0.23 0.00 54 1020.2
20260502194011 74 351 2.0 8.0 0.00 0.23 0.00 54 1020.3
20260502193510 74 94 8.0 8.0 0.00 0.23 0.00 53 1020.2
20260502193010 74 281 1.0 9.0 0.00 0.24 0.00 54 1020.4
20260502192510 74 360 6.0 9.0 0.00 0.25 0.00 55 1020.4
20260502191510 74 100 2.0 9.0 0.00 0.27 0.00 55 1020.5
20260502190510 74 331 1.0 8.0 0.00 0.27 0.00 56 1020.4
20260502190010 74 105 2.0 3.0 0.00 0.27 0.00 57 1020.4
20260502185510 73 211 1.0 3.0 0.00 0.27 0.00 56 1020.5
20260502185010 73 11 1.0 4.0 0.00 0.27 0.00 57 1020.5
20260502184510 73 103 0.0 7.0 0.00 0.27 0.00 58 1020.6
20260502184010 73 100 3.0 7.0 0.00 0.27 0.00 58 1020.6
20260502183510 73 116 2.0 6.0 0.00 0.27 0.00 58 1020.7
20260502182510 72 213 1.0 3.0 0.00 0.28 0.00 60 1020.8
20260502182010 72 288 2.0 7.0 0.00 0.30 0.00 60 1021.0
20260502181510 72 331 2.0 8.0 0.00 0.32 0.00 62 1021.0
20260502181009 71 355 4.0 9.0 0.00 0.34 0.00 61 1021.1
20260502180509 72 304 4.0 9.0 0.00 0.36 0.00 62 1021.3
20260502164008 68 340 3.0 4.0 0.00 0.45 0.00 68 1022.0
20260502163508 68 172 0.0 4.0 0.00 0.45 0.00 68 1022.0
20260502163008 68 123 2.0 3.0 0.00 0.45 0.00 68 1022.0
20260502162508 67 103 0.0 3.0 0.00 0.45 0.00 69 1022.0
20260502162009 67 93 2.0 5.0 0.00 0.45 0.00 69 1022.0
20260502161509 67 253 0.0 5.0 0.00 0.45 0.00 70 1022.0
20260502161008 67 340 2.0 3.0 0.00 0.45 0.00 71 1022.1
20260502160508 66 16 2.0 3.0 0.00 0.45 0.00 71 1022.1
20260502152011 63 139 1.0 8.0 0.00 0.50 0.00 76 1022.1
20260502151511 63 355 5.0 8.0 0.00 0.50 0.00 78 1022.0
20260502151011 62 125 3.0 5.0 0.00 0.50 0.00 78 1022.0
20260502150511 62 345 3.0 5.0 0.00 0.50 0.00 79 1022.0
20260502130510 54 315 1.0 4.0 0.00 0.67 0.00 82 1020.6
20260502123509 51 341 0.0 3.0 0.00 0.68 0.00 82 1020.2
20260502123009 51 84 0.0 1.0 0.00 0.68 0.00 82 1020.0
20260502122509 51 345 0.0 1.0 0.00 0.70 0.00 83 1019.8
20260502122009 50 84 0.0 0.0 0.00 0.72 0.00 83 1019.8
20260502121509 50 346 0.0 0.0 0.00 0.73 0.00 83 1019.6
20260502121009 50 346 0.0 0.0 0.00 0.73 0.00 83 1019.6
20260502120508 50 346 0.0 0.0 0.00 0.74 0.00 83 1019.6
20260502115508 50 346 0.0 1.0 0.00 0.77 0.00 83 1019.3
20260502114509 51 346 0.0 0.0 0.00 0.80 0.00 83 1019.2
20260502113508 51 346 0.0 0.0 0.00 0.83 0.00 83 1019.1
20260502113008 51 346 0.0 0.0 0.00 0.84 0.00 83 1019.2
20260502112508 51 346 0.0 0.0 0.00 0.84 0.00 83 1019.1
20260502112007 52 346 0.0 1.0 0.00 0.85 0.00 83 1019.1
20260502111507 52 346 0.0 1.0 0.00 0.85 0.00 83 1019.1
20260502111007 52 346 0.0 0.0 0.00 0.85 0.00 83 1019.0
20260502110507 52 346 0.0 1.0 0.00 0.87 0.00 83 1018.9
20260502110007 52 346 1.0 1.0 0.00 0.88 0.00 83 1018.9
20260502105508 52 346 0.0 0.0 0.00 0.90 0.00 83 1018.9
20260502104507 52 346 0.0 1.0 0.00 0.94 0.00 83 1018.7
20260502104007 52 346 0.0 2.0 0.00 0.95 0.00 83 1018.6
20260502103507 52 340 1.0 2.0 0.00 0.97 0.00 83 1018.6
20260502103007 52 355 0.0 2.0 0.00 0.98 0.00 83 1018.6
20260502102507 52 12 2.0 2.0 0.00 0.99 0.00 83 1018.5
20260502102007 53 38 0.0 1.0 0.00 1.00 0.00 83 1018.3
20260502101006 53 38 0.0 3.0 0.00 1.02 0.00 83 1018.2
20260502100506 53 355 1.0 3.0 0.00 1.03 0.00 83 1018.2
20260502091506 53 333 1.0 3.0 0.00 1.07 0.00 83 1017.4
20260502091006 53 5 1.0 3.0 0.00 1.09 0.00 83 1017.4
20260502090506 53 29 0.0 4.0 0.00 1.11 0.00 83 1017.4
20260502065534 54 360 1.0 4.0 0.00 1.34 0.00 83 1017.0
20260502065034 54 360 3.0 3.0 0.00 1.34 0.00 83 1017.0
20260502064534 54 103 0.0 2.0 0.00 1.34 0.00 83 1017.0
20260502063534 54 19 0.0 2.0 0.00 1.35 0.00 83 1017.2
20260502063034 54 23 0.0 2.0 0.00 1.35 0.00 83 1017.2
20260502062534 54 28 1.0 4.0 0.00 1.35 0.00 82 1017.3
20260502062034 54 327 0.0 4.0 0.00 1.35 0.00 82 1017.4
20260502061534 54 19 1.0 5.0 0.00 1.35 0.00 82 1017.3
20260502060534 54 345 2.0 3.0 0.00 1.35 0.00 82 1017.4
20260502055533 54 63 0.0 2.0 0.00 1.35 0.00 82 1017.2
20260502055034 54 24 1.0 2.0 0.00 1.35 0.00 82 1017.2
20260502054534 54 29 1.0 2.0 0.00 1.35 0.00 82 1017.2
20260502054033 54 25 0.0 2.0 0.00 1.35 0.00 82 1017.1
20260502053534 55 33 1.0 2.0 0.00 1.35 0.00 82 1017.2
20260502053034 55 55 0.0 2.0 0.00 1.35 0.00 82 1017.0
20260502052533 55 80 2.0 2.0 0.00 1.35 0.00 82 1017.1
20260502052033 55 22 0.0 1.0 0.00 1.35 0.00 82 1017.1
20260502051533 55 30 1.0 1.0 0.00 1.35 0.00 82 1017.1
20260502051033 55 5 0.0 3.0 0.00 1.35 0.00 82 1017.1
20260502050033 55 360 2.0 3.0 0.00 1.35 0.00 82 1016.8
20260502045533 55 349 0.0 3.0 0.00 1.35 1.35 82 1016.8
20260502045033 55 24 0.0 3.0 0.00 1.35 1.35 82 1017.0
20260502044533 55 55 0.0 2.0 0.00 1.35 1.35 82 1017.0
20260502044033 55 341 0.0 3.0 0.00 1.35 1.35 82 1017.1
20260502043533 56 37 1.0 3.0 0.00 1.35 1.35 82 1017.1
20260502043033 56 355 0.0 3.0 0.00 1.35 1.35 82 1017.1
20260502042033 56 349 0.0 3.0 0.00 1.36 1.35 82 1017.1
20260502041533 56 314 0.0 4.0 0.00 1.36 1.35 82 1017.0